Weather History for Kerkyra, Greece

Change the Weather History Date:

Wednesday, March 21, 2012

  Actual Average Record
Temperature  
Mean Temperature 59 °F -  
Max Temperature 70 °F 65 °F 71 °F (2012)
Min Temperature 48 °F 48 °F 37 °F (1998)
Degree Days  
Heating Degree Days 6    
Growing Degree Days 9 (Base 50)    
Moisture  
Dew Point 54 °F    
Average Humidity 84    
Maximum Humidity 100    
Minimum Humidity 56    
Precipitation  
Precipitation 0.00 in 0.10 in - ()
Sea Level Pressure  
Sea Level Pressure 30.40 in    
Wind  
Wind Speed 1 mph ()    
Max Wind Speed 6 mph    
Max Gust Speed -    
Visibility 5.8 miles    
Events Fog    
Averages and records for this station are not official NWS values.
T = Trace of Precipitation, MM = Missing Value Source: Averaged Metar Reports

Daily Weather History Graph

Daily Weather History Graph

Search for Another Location

Airport:

Trip Planner

Search our weather history database for the weather conditions in past years. The results will help you decide how hot, cold, wet, or windy it might be!

Date:

Astronomy

Mar. 21, 2012 Rise Set
Actual Time 6:41 AM EET 6:53 PM EET
Civil Twilight 6:15 AM EET 7:20 PM EET
Nautical Twilight 5:43 AM EET 7:52 PM EET
Astronomical Twilight 5:11 AM EET 8:24 PM EET
Moon 5:44 AM EET (3/21) 6:02 PM EET (3/21)
Length of Visible Light 13h 05m
Length of Day
12h 11m
Waning Crescent, 1% of the Moon is Illuminated
Mar 21
Waning Crescent
Mar 22
New
Mar 30
First Quarter
Apr 6
Full
Apr 13
Last Quarter

Hourly Weather History & Observations

Time (EET) Temp. Dew Point Humidity Pressure Visibility Wind Dir Wind Speed Gust Speed Precip Events Conditions
12:20 AM 53.6 °F 51.8 °F 94% 30.42 in - Calm Calm - N/A   Clear
12:50 AM 51.8 °F 51.8 °F 100% 30.42 in - Calm Calm - N/A   Clear
1:20 AM 51.8 °F 51.8 °F 100% 30.42 in - Calm Calm - N/A   Clear
1:50 AM 51.8 °F 50.0 °F 94% 30.42 in - Calm Calm - N/A   Clear
2:20 AM 51.8 °F 50.0 °F 94% 30.42 in - Calm Calm - N/A   Clear
2:50 AM 50.0 °F 50.0 °F 100% 30.42 in - Calm Calm - N/A   Clear
3:20 AM 50.0 °F 50.0 °F 100% 30.42 in - Calm Calm - N/A   Clear
3:50 AM 50.0 °F 50.0 °F 100% 30.42 in 6.2 mi Calm Calm - N/A   Partly Cloudy
4:20 AM 50.0 °F 50.0 °F 100% 30.42 in 5.0 mi Calm Calm - N/A   Scattered Clouds
4:50 AM 50.0 °F 48.2 °F 94% 30.42 in 5.0 mi Calm Calm - N/A   Scattered Clouds
5:20 AM 50.0 °F 48.2 °F 94% 30.42 in 5.0 mi Calm Calm - N/A   Scattered Clouds
5:50 AM 48.2 °F 48.2 °F 100% 30.42 in 5.0 mi Calm Calm - N/A   Scattered Clouds
6:20 AM 48.2 °F 48.2 °F 100% 30.42 in 3.1 mi Calm Calm - N/A   Mostly Cloudy
7:20 AM 48.2 °F 48.2 °F 100% 30.42 in 0.3 mi Calm Calm - N/A Fog Fog
7:50 AM 48.2 °F 48.2 °F 100% 30.42 in 5.6 mi Calm Calm - N/A   Scattered Clouds
8:00 AM 49 °F 49 °F 100% 30.43 in 1 mi Calm Calm - -   Mist
8:20 AM 50.0 °F 50.0 °F 100% 30.42 in 5.6 mi Calm Calm - N/A   Scattered Clouds
8:50 AM 51.8 °F 50.0 °F 94% 30.42 in 6.2 mi Calm Calm - N/A   Partly Cloudy
9:20 AM 53.6 °F 50.0 °F 88% 30.42 in - Calm Calm - N/A   Clear
9:50 AM 62.6 °F 55.4 °F 77% 30.42 in - Calm Calm - N/A   Clear
10:20 AM 64.4 °F 55.4 °F 73% 30.42 in - Calm Calm - N/A   Clear
10:50 AM 64.4 °F 53.6 °F 68% 30.42 in - NE 3.5 mph - N/A   Clear
11:20 AM 66.2 °F 53.6 °F 64% 30.42 in - ENE 3.5 mph - N/A   Clear
11:50 AM 66.2 °F 53.6 °F 64% 30.42 in - ENE 4.6 mph - N/A   Clear
12:20 PM 66.2 °F 53.6 °F 64% 30.42 in - ENE 4.6 mph - N/A   Clear
12:50 PM 68.0 °F 57.2 °F 68% 30.42 in 6.2 mi ENE 4.6 mph - N/A   Partly Cloudy
1:20 PM 68.0 °F 57.2 °F 68% 30.42 in 6.2 mi ENE 4.6 mph - N/A   Partly Cloudy
1:50 PM 69.8 °F 57.2 °F 64% 30.39 in 6.2 mi Calm Calm - N/A   Partly Cloudy
2:00 PM 70 °F 58 °F 56% 30.41 in 12 mi Calm Calm - -   Scattered Clouds
2:20 PM 69.8 °F 57.2 °F 64% 30.39 in 6.2 mi North 3.5 mph - N/A   Partly Cloudy
2:50 PM 69.8 °F 57.2 °F 64% 30.39 in 6.2 mi North 4.6 mph - N/A   Partly Cloudy
3:20 PM 71.6 °F 57.2 °F 60% 30.39 in 6.2 mi NNE 5.8 mph - N/A   Partly Cloudy
3:50 PM 71.6 °F 59.0 °F 64% 30.36 in 6.2 mi North 4.6 mph - N/A   Partly Cloudy
4:20 PM 71.6 °F 59.0 °F 64% 30.36 in 6.2 mi North 4.6 mph - N/A   Partly Cloudy
4:50 PM 71.6 °F 59.0 °F 64% 30.36 in 6.2 mi North 4.6 mph - N/A   Partly Cloudy
5:20 PM 69.8 °F 59.0 °F 68% 30.36 in 6.2 mi North 4.6 mph - N/A   Partly Cloudy
5:50 PM 66.2 °F 55.4 °F 68% 30.36 in 6.2 mi North 4.6 mph - N/A   Partly Cloudy
6:20 PM 62.6 °F 57.2 °F 82% 30.36 in 6.2 mi North 5.8 mph - N/A   Partly Cloudy
6:50 PM 62.6 °F 59.0 °F 88% 30.36 in 6.2 mi Calm Calm - N/A   Partly Cloudy
7:50 PM 60.8 °F 57.2 °F 88% 30.36 in 6.2 mi Calm Calm - N/A   Partly Cloudy
8:00 PM 61 °F 57 °F 82% 30.36 in 6 mi Calm Calm - -   Scattered Clouds
8:20 PM 60.8 °F 57.2 °F 88% 30.36 in 6.2 mi Calm Calm - N/A   Partly Cloudy
8:50 PM 59.0 °F 55.4 °F 88% 30.36 in 6.2 mi Calm Calm - N/A   Partly Cloudy
9:20 PM 57.2 °F 53.6 °F 88% 30.36 in 6.2 mi Calm Calm - N/A   Partly Cloudy
9:50 PM 57.2 °F 55.4 °F 94% 30.36 in 6.2 mi Calm Calm - N/A   Partly Cloudy
10:20 PM 57.2 °F 55.4 °F 94% 30.36 in 6.2 mi Calm Calm - N/A   Partly Cloudy
10:50 PM 55.4 °F 53.6 °F 94% 30.36 in 6.2 mi Calm Calm - N/A   Partly Cloudy
11:20 PM 55.4 °F 53.6 °F 94% 30.36 in 6.2 mi Calm Calm - N/A   Partly Cloudy
11:50 PM 53.6 °F 53.6 °F 100% 30.36 in 6.2 mi Calm Calm - N/A   Partly Cloudy